Home > Weather > Essen > Past weeks

Flag for Germany Weather for the Past 2 Weeks in Essen, North Rhine-Westphalia, Germany

Now
45 °F

Clear.


Feels Like: 38 °F
Forecast: 43 / 50 °F
Wind: 14 mph from South

Location: Duesseldorf

Current Time: Feb 7, 2016 at 10:49:54 PM

Latest Report: Feb 7, 2016 at 10:20 PM


Visibility: 10 mi

Pressure: 29.59 "Hg

Humidity: 66%

Dew point: 34 °F

Location of EssenLocation

Historic Weather in Essen — Graph

°F

Essen Temperature Yesterday

Maximum temperature yesterday: 54 °F (at 1:50 PM)
Minimum temperature yesterday: 46 °F (at 5:20 AM)
Average temperature yesterday: 50 °F

High & Low Weather Summary for the Past Weeks

 TemperatureHumidityPressure
High57 °F (Jan 25, 1:50 PM)100% (Jan 24, 3:20 PM)30.54 "Hg (Jan 24, 3:20 PM)
Low36 °F (Jan 28, 10:50 PM)57% (Jan 28, 2:50 PM)29.45 "Hg (Feb 7, 4:50 AM)
Average47 °F83%30.06 "Hg
* Reported Jan 23 9:20 PM — Feb 7 9:20 PM, Essen, Weather by CustomWeather, © 2016

Note: Actual official high and low records may vary slightly from our data, if they occured in-between our weather recording intervals... More about our weather records

Advertising

Essen Weather History for the Previous 24 Hours

 ConditionsComfort  
Time TempWeatherWind HumidityBarometerVisibility
9:20 PM
Sun, Feb 7
45 °FClear.14 mph71%29.62 "Hg10 mi
8:50 PM45 °FClear.15 mph66%29.62 "Hg10 mi
8:20 PM45 °FClear.13 mph71%29.62 "Hg10 mi
7:50 PM45 °FClear.13 mph71%29.62 "Hg10 mi
7:20 PM46 °FPassing clouds.13 mph66%29.62 "HgN/A
6:50 PM45 °FPassing clouds.9 mph71%29.62 "HgN/A
6:20 PM45 °FPassing clouds.10 mph71%29.62 "HgN/A
5:50 PM46 °FPassing clouds.16 mph66%29.62 "HgN/A
5:20 PM46 °FPassing clouds.17 mph66%29.59 "HgN/A
4:20 PM50 °FScattered clouds.18 mph62%29.59 "HgN/A
3:50 PM48 °FBroken clouds.20 mph62%29.59 "HgN/A
3:20 PM48 °FBroken clouds.20 mph66%29.59 "HgN/A
2:50 PM48 °FPartly sunny.18 mph71%29.56 "HgN/A
2:20 PM48 °FPartly sunny.16 mph71%29.56 "HgN/A
1:50 PM48 °FPartly sunny.14 mph71%29.56 "HgN/A
1:20 PM48 °FPartly sunny.17 mph76%29.56 "HgN/A
12:50 PM48 °FPartly sunny.18 mph76%29.56 "HgN/A
12:20 PM48 °FBroken clouds.15 mph82%29.56 "HgN/A
11:50 AM48 °FBroken clouds.14 mph82%29.53 "HgN/A
11:20 AM48 °FPartly sunny.14 mph87%29.53 "HgN/A
10:50 AM46 °FBroken clouds.12 mph93%29.53 "HgN/A
10:20 AM46 °FRain. Partly sunny.17 mph87%29.53 "HgN/A
9:50 AM48 °FBroken clouds.16 mph87%29.50 "HgN/A
9:20 AM48 °FLight rain. Broken clouds.21 mph87%29.50 "HgN/A
8:50 AM52 °FLight rain. Partly sunny.18 mph72%29.47 "HgN/A
8:20 AM50 °FPartly sunny.18 mph82%29.45 "HgN/A
7:50 AM52 °FPassing clouds.22 mph67%29.45 "HgN/A
7:20 AM52 °FPartly cloudy.18 mph67%29.45 "HgN/A
6:50 AM52 °FLight rain. Passing clouds.20 mph67%29.45 "HgN/A
6:20 AM52 °FClear.21 mph62%29.45 "Hg10 mi
5:50 AM52 °FClear.22 mph62%29.45 "Hg10 mi
5:20 AM52 °FClear.18 mph62%29.45 "Hg10 mi
4:50 AM52 °FClear.14 mph67%29.45 "Hg10 mi
4:20 AM50 °FPassing clouds.14 mph71%29.47 "HgN/A
3:50 AM50 °FClear.15 mph71%29.47 "Hg10 mi
3:20 AM52 °FClear.18 mph67%29.47 "Hg10 mi
2:20 AM50 °FClear.18 mph67%29.50 "Hg10 mi
1:50 AM50 °FPassing clouds.16 mph67%29.53 "HgN/A
1:20 AM50 °FClear.17 mph71%29.53 "Hg10 mi
12:50 AM50 °FClear.15 mph71%29.56 "Hg10 mi
12:20 AM50 °FClear.16 mph71%29.56 "Hg10 mi
11:50 PM
Sat, Feb 6
50 °FPassing clouds.18 mph71%29.56 "HgN/A
11:20 PM50 °FClear.17 mph71%29.56 "Hg10 mi
10:50 PM50 °FClear.18 mph71%29.59 "Hg10 mi
Weather by CustomWeather, © 2016

See weather overviewHow to use our weather pages